CREW DRAGON 5 DEB (55840 NORAD) Tracking and Keplerian Element Data

This shows tracking and keplerian element data for the satellite.

Feedback or suggestion? Click here.




ElementValue
Catalog55840
NameCREW DRAGON 5 DEB
Epoch Orbit668
Epoch Day112.88171358
Epoch Year2023
RAAN229.3335
Inclination51.3058
Eccentricity0.0028753
Argument of Perigee251.1845
Mean Anonmoly207.5786
Mean Motion16.10638542
Decay Rate0.01410634
L11 55840U 22124B 23112.88171358 .01410634 13649-2 13318-2 0 9995
L22 55840 51.3058 229.3335 0028753 251.1845 207.5786 16.10638542 6685



Live tracking and technical data element details for CREW DRAGON 5 DEB (NORAD 55840). CREW DRAGON 5 DEB can be tracked NOW for your location showing map with azimuth and elevation plus other details from your city location.







IsCatalogInMostPopularTable: catalog: 55840, numindb: 7
Update: records affected: 1



GetName: 55840 CREW DRAGON 5 DEB

Hit Count: updated at: Tue, 06 Jun 2023 03:02:44 GMT